STARLINK-32636, 62232

Orbit data source: Space-Track

STARLINK-32636, 62232 is a payload satellite owned by SpaceX/Seattle (US) in LEO that was launched on Thu, 05 Dec 2024 UTC via an FALCON 9 launch vehicle from the Air Force Western Test Range (AFWTR). Payload-class satellites include a variety of spacecraft equipped with specific instruments for various scientific and technological missions. These include communications satellites like Starlink; space stations such as the ISS; scientific satellites like the Hubble; Earth observation satellites from companies like Planet Labs, Umbra, and HawkEye 360; GPS; miniature CubeSats for education and research; and military/defense satellites.

Loading next visibility...
Identifier
62232, 2024-231Q
Orbit
LEO
Country
Flag of USUS
Related business
Manufacturer
SpaceX/Seattle
Mission
Operational Commercial Communications
Bus & Motor
STARLINK V2M, Unknown motor
Mass
730 kg wet, ~700 kg dry
Launch date (UTC)
2024-12-05 (1 year ago)
Launch vehicle
FALCON 9
Launch site
Air Force Western Test Range (AFWTR)
Object type
Payload
Rocket body
Debris
Shape & HBR
Box + 2 Pan, 17.7 m
Radar Cross Section
33.884 m², Large (>1 m²)

Expand to show TLE details & history
Last TLE update: 21 hours ago

TLE from 21 hours ago
0 STARLINK-32636
1 62232U 24231Q   26034.34507590 -.00054517  00000-0 -18376-2 0  9996
2 62232  53.1615  18.9083 0001717  79.3488 280.7706 15.30276131 66519
Epoch: 2026-02-03T08:16Z
TLE epoch observation values (Epoch: 2026-02-03T08:16:54.557Z)
Latitude
-0.00005°
Longitude
121.1536°
Altitude
475.668 km
Speed
7.629 km/s
True Right ascension
01h 15m 37s
True Declination
0° 00' 00"
Sunlit
Object was in daylight at epoch
Visualization orbit readout
Latitude
Unknown
Longitude
Unknown
Altitude
Unknown
Speed
Unknown
Apparent Right ascension
Unknown
Apparent Declination
Unknown
Sunlit
N/A
Visualization observer readout
Local Sidereal Time
07:10:57
Azimuth
Unknown
Elevation
Unknown
Doppler factor
Unknown
Orbital elements
Apogee altitude
476.421 km
Perigee altitude
474.067 km
Semi-major axis
6,853.381 km
Eccentricity
0.00017
Inclination
53.1615°
RAAN
18.9083°
Arg. of periapsis
79.3488°
True anomaly
280.75127°
Mean anomaly
280.7706°
Eccentric anomaly
280.76094°
Mean motion
3.82548 °/min
Orbital period
94.11 mins
BSTAR
-0.0018376
Loading maneuver chart data...
Computing Atmospheric mass density...
Loading historical data...
Loading historical data...
Loading historical data...
Loading historical data...
Loading historical data...
Loading historical data...
Loading historical data...

Documentation

Showing up to 5 results
|